Change the Weather History Date:

Saturday, March 22, 2014

  Actual Average Record
Temperature  
Mean Temperature 63 °F -  
Max Temperature 69 °F 75 °F 81 °F (2013)
Min Temperature 57 °F 68 °F 57 °F (2014)
Degree Days  
Heating Degree Days 2    
Growing Degree Days 13 (Base 50)    
Moisture  
Dew Point 47 °F    
Average Humidity 49    
Maximum Humidity 63    
Minimum Humidity 37    
Precipitation  
Precipitation 0.00 in - - ()
Sea Level Pressure  
Sea Level Pressure 30.19 in    
Wind  
Wind Speed 10 mph ()    
Max Wind Speed 20 mph    
Max Gust Speed -    
Visibility 8.2 miles    
Events      
Averages and records for this station are not official NWS values.
T = Trace of Precipitation, MM = Missing Value Source: Averaged Metar Reports

Daily Weather History Graph

Daily Weather History Graph

Search for Another Location

Airport or City:

Trip Planner

Search our weather history database for the weather conditions in past years. The results will help you decide how hot, cold, wet, or windy it might be!

Date:

Astronomy

Mar. 22, 2014 Rise Set
Actual Time 6:45 AM JST 6:55 PM JST
Civil Twilight 6:23 AM JST 7:17 PM JST
Nautical Twilight 5:56 AM JST 7:44 PM JST
Astronomical Twilight 5:30 AM JST 8:10 PM JST
Moon No Moon Rise 10:27 AM JST (3/22)
Length of Visible Light 12h 54m
Length of Day
12h 09m
Waning Gibbous, 71% of the Moon is Illuminated
Mar 22
Waning Gibbous
Mar 24
Last Quarter
Mar 31
New
Apr 7
First Quarter
Apr 15
Full

Hourly Weather History & Observations

Time (JST) Temp. Dew Point Humidity Pressure Visibility Wind Dir Wind Speed Gust Speed Precip Events Conditions
12:00 AM 60 °F 46 °F 50% 30.21 in - NNE 8.1 mph - -  
1:00 AM 59 °F 46 °F 52% 30.20 in - North 8.1 mph - -  
2:00 AM 58 °F 46 °F 54% 30.19 in - North 8.1 mph - -  
3:00 AM 58 °F 46 °F 55% 30.18 in 12 mi North 6.9 mph - -   Mostly Cloudy
4:00 AM 58 °F 46 °F 54% 30.17 in - North 9.2 mph - -  
5:00 AM 58 °F 46 °F 56% 30.18 in - North 9.2 mph - -  
6:00 AM 59 °F 47 °F 54% 30.18 in 12 mi North 9.2 mph - -   Mostly Cloudy
6:00 AM 59.0 °F 46.4 °F 63% 30.15 in 6.2 mi North 8.1 mph - N/A   Scattered Clouds
7:00 AM 58 °F 47 °F 57% 30.19 in - North 9.2 mph - -  
7:00 AM 59.0 °F 44.6 °F 59% 30.15 in 6.2 mi North 10.4 mph - N/A   Scattered Clouds
8:00 AM 60 °F 48 °F 54% 30.22 in - North 8.1 mph - -  
8:00 AM 60.8 °F 46.4 °F 59% 30.18 in 6.2 mi North 9.2 mph - N/A   Scattered Clouds
9:00 AM 64 °F 48 °F 45% 30.22 in 12 mi NNE 12.7 mph - -   Partly Cloudy
9:00 AM 62.6 °F 46.4 °F 55% 30.18 in 6.2 mi NE 16.1 mph - N/A   Scattered Clouds
10:00 AM 65 °F 48 °F 44% 30.22 in - NNE 12.7 mph - -  
10:00 AM 66.2 °F 44.6 °F 46% 30.21 in 6.2 mi NE 16.1 mph - N/A   Scattered Clouds
11:00 AM 66 °F 47 °F 40% 30.22 in - NE 15.0 mph - -  
11:00 AM 66.2 °F 48.2 °F 52% 30.21 in 6.2 mi NE 18.4 mph - N/A   Scattered Clouds
12:00 PM 68 °F 48 °F 38% 30.21 in 12 mi NE 16.1 mph - -   Partly Cloudy
12:00 PM 68.0 °F 46.4 °F 46% 30.18 in 6.2 mi NE 19.6 mph - N/A   Partly Cloudy
1:00 PM 67 °F 49 °F 42% 30.19 in - NE 16.1 mph - -  
1:00 PM 66.2 °F 46.4 °F 49% 30.18 in 6.2 mi NE 19.6 mph - N/A   Scattered Clouds
2:00 PM 68 °F 48 °F 38% 30.18 in - NE 13.8 mph - -  
2:00 PM 66.2 °F 46.4 °F 49% 30.15 in 6.2 mi NE 15.0 mph - N/A   Scattered Clouds
3:00 PM 69 °F 48 °F 37% 30.17 in 12 mi ENE 12.7 mph - -   Partly Cloudy
3:00 PM 66.2 °F 46.4 °F 49% 30.15 in 6.2 mi ENE 16.1 mph - N/A   Partly Cloudy
4:00 PM 68 °F 49 °F 39% 30.17 in - ENE 13.8 mph - -  
4:00 PM 68.0 °F 46.4 °F 46% 30.15 in 6.2 mi NE 16.1 mph - N/A   Partly Cloudy
5:00 PM 67 °F 48 °F 39% 30.19 in - NE 12.7 mph - -  
5:00 PM 66.2 °F 46.4 °F 49% 30.15 in 6.2 mi NE 15.0 mph - N/A   Partly Cloudy
6:00 PM 66 °F 47 °F 40% 30.20 in 16 mi NE 10.4 mph - -   Partly Cloudy
6:00 PM 66.2 °F 46.4 °F 49% 30.18 in 6.2 mi ENE 13.8 mph - N/A   Scattered Clouds
7:00 PM 65 °F 47 °F 41% 30.21 in - NE 8.1 mph - -  
7:00 PM 64.4 °F 46.4 °F 52% 30.18 in 6.2 mi ENE 11.5 mph - N/A   Scattered Clouds
8:00 PM 62 °F 48 °F 50% 30.22 in - NNE 4.6 mph - -  
8:00 PM 62.6 °F 46.4 °F 55% 30.18 in 6.2 mi ENE 10.4 mph - N/A   Partly Cloudy
9:00 PM 63 °F 49 °F 49% 30.24 in 12 mi NNE 5.8 mph - -   Mostly Cloudy
10:00 PM 62 °F 50 °F 55% 30.25 in - NE 5.8 mph - -  
11:00 PM 62 °F 49 °F 53% 30.26 in - NE 5.8 mph - -